User: anonymous   Login
Location: Maiden_LMO
(35.5760°N, 81.2120°W)
Time: 15:31:30
(UTC-04:00)
Language:

ADEOS II - Orbit

View from above orbital plane
View from above orbital plane
View from above satellite
View from above satellite

Ground track
Ground track

The orbit data is extracted from the following two-line orbital elements,

1 27597U 02056A   17234.85989422 +.00000043 +00000-0 +34684-4 0  9993
2 27597 098.3756 201.6116 0002035 105.7716 254.3690 14.27299004764930
Epoch (UTC): 22 August 2017 20:38:14
Eccentricity: 0.0002035
inclination: 98.3756°
perigee height: 799 km
apogee height: 802 km
right ascension of ascending node: 201.6116°
argument of perigee: 105.7716°
revolutions per day: 14.27299004
mean anomaly at epoch: 254.3690°
orbit number at epoch: 76493

The dashed part of the orbit path shows where the satellite is in the earth's shadow,  

DLR